Regional Weather Roundup
Issued by NWS

Home | Current Version | Previous Version | Graphics & Text | Print | Product List | Glossary On
Versions: 1 2 3 4 5 6 7 8 9 10 11 12 13 14 15 16 17 18 19 20 21 22 23 24 25 26 27 28 29 30 31 32 33 34 35 36 37 38 39 40 41 42 43 44 45 46 47 48 49 50
000
ASUS43 KLMK 190202
RWRKY
KENTUCKY REGIONAL WEATHER ROUNDUP
NATIONAL WEATHER SERVICE LOUISVILLE KY
1000 PM EDT FRI APR 18 2014

NOTE "FAIR" INDICATES FEW OR NO CLOUDS BELOW 12,000 FEET
WITH NO SIGNIFICANT WEATHER AND/OR OBSTRUCTIONS TO VISIBILITY.

KYZ001>023-026-027-061>063-070>075-190300-
WESTERN AND SOUTH CENTRAL KENTUCKY

CITY           SKY/WX    TMP DP  RH WIND       PRES   REMARKS
PADUCAH        FAIR      65  42  43 NE5       30.19R
HENDERSON      PTCLDY    52  45  76 N3        30.20R
OWENSBORO      MOCLDY    65  42  43 N5        30.20R
HOPKINSVILLE   CLOUDY    63  45  51 NE6       30.19R
BOWLING GREEN  MOCLDY    60  46  59 CALM      30.20R
GLASGOW        NOT AVBL
$$

KYZ024-025-028>034-038-045-046-053-190300-
NORTH CENTRAL KENTUCKY

CITY           SKY/WX    TMP DP  RH WIND       PRES   REMARKS
LOUISVILLE/SDF MOCLDY    65  40  39 E5        30.21R
LOUISVILLE/LOU MOCLDY    64  39  39 CALM      30.21R
FORT KNOX      MOCLDY    62  38  41 E2        30.20R
$$

KYZ035>037-039>044-047>052-055>060-089>105-190300-
NORTHEAST KENTUCKY

CITY           SKY/WX    TMP DP  RH WIND       PRES   REMARKS
LEXINGTON      CLOUDY    60  38  43 E5        30.22R
COVINGTON      MOCLDY    60  38  43 N3        30.23R
FRANKFORT      MOCLDY    53  41  63 CALM      30.21R
$$

KYZ054-064>069-076>088-106>120-190300-
SOUTHEAST KENTUCKY

CITY           SKY/WX    TMP DP  RH WIND       PRES   REMARKS
JACKSON        CLOUDY    62  34  35 NE5       30.21R
LONDON         CLOUDY    60  43  53 N3        30.20S
SOMERSET       NOT AVBL
MIDDLESBORO    NOT AVBL
MONTICELLO     CLOUDY    53  46  77 CALM      30.22R
$$




USA.gov is the U.S. government's official web portal to all federal, state and local government web resources and services.